Weather History for Naples, FL

Change the Weather History Date:

Monday, April 22, 2013

  Actual Average Record
Temperature  
Mean Temperature 77 °F 74 °F  
Max Temperature 84 °F 84 °F 92 °F (1970)
Min Temperature 69 °F 64 °F 54 °F (1962)
Degree Days  
Heating Degree Days 0 0  
Month to date heating degree days 0 0  
Since 1 July heating degree days 182 256  
Cooling Degree Days 12 9  
Month to date cooling degree days 255 172  
Year to date cooling degree days 646 539  
Growing Degree Days 26 (Base 50)    
Moisture  
Dew Point 68 °F    
Average Humidity 76    
Maximum Humidity 97    
Minimum Humidity 55    
Precipitation  
Precipitation 0.09 in 0.08 in 0.74 in (1959)
Month to date precipitation 4.21 1.84  
Year to date precipitation 6.65 8.17  
Snow  
Snow 0.00 in - - ()
Month to date snowfall 0.0  
Since 1 July snowfall 0.0  
Snow Depth 0.00 in    
Sea Level Pressure  
Sea Level Pressure 30.00 in    
Wind  
Wind Speed 7 mph (NE)    
Max Wind Speed 15 mph    
Max Gust Speed 20 mph    
Visibility 10 miles    
Events Rain    
T = Trace of Precipitation, MM = Missing Value Source: NWS Daily Summary

Daily Weather History Graph

Daily Weather History Graph

Search for Another Location

Airport:

Trip Planner

Search our weather history database for the weather conditions in past years. The results will help you decide how hot, cold, wet, or windy it might be!

Date:

Astronomy

Apr. 22, 2013 Rise Set
Actual Time 6:57 AM EDT 7:54 PM EDT
Civil Twilight 6:33 AM EDT 8:18 PM EDT
Nautical Twilight 6:05 AM EDT 8:46 PM EDT
Astronomical Twilight 5:36 AM EDT 9:15 PM EDT
Moon 4:58 PM EDT (4/22) 4:31 AM EDT (4/22)
Length of Visible Light 13h 45m
Length of Day
12h 57m
Waxing Gibbous, 87% of the Moon is Illuminated
Apr 22
Waxing Gibbous
Apr 25
Full
May 2
Last Quarter
May 9
New
May 18
First Quarter

Hourly Weather History & Observations

Time (EDT) Temp. Heat Index Dew Point Humidity Pressure Visibility Wind Dir Wind Speed Gust Speed Precip Events Conditions
12:53 AM 71.1 °F - 68.0 °F 90% 30.06 in 10.0 mi Calm Calm - N/A   Clear
1:53 AM 71.1 °F - 68.0 °F 90% 30.05 in 9.0 mi ENE 4.6 mph - N/A   Mostly Cloudy
2:53 AM 70.0 °F - 68.0 °F 93% 30.03 in 9.0 mi NW 5.8 mph - N/A   Partly Cloudy
3:53 AM 70.0 °F - 66.9 °F 90% 29.99 in 10.0 mi NE 6.9 mph - N/A   Clear
4:53 AM 70.0 °F - 66.9 °F 90% 30.00 in 10.0 mi East 4.6 mph - N/A   Overcast
5:53 AM 69.1 °F - 66.0 °F 90% 29.98 in 10.0 mi East 6.9 mph - N/A   Overcast
6:53 AM 69.1 °F - 64.9 °F 87% 29.97 in 10.0 mi East 5.8 mph - N/A   Mostly Cloudy
7:53 AM 69.1 °F - 66.0 °F 90% 30.00 in 9.0 mi NE 5.8 mph - N/A   Scattered Clouds
8:53 AM 72.0 °F - 64.9 °F 78% 30.02 in 10.0 mi NE 8.1 mph - N/A   Scattered Clouds
9:53 AM 73.9 °F - 64.9 °F 73% 30.04 in 10.0 mi ENE 8.1 mph - N/A   Overcast
10:53 AM 77.0 °F - 68.0 °F 74% 30.04 in 10.0 mi NE 11.5 mph - N/A   Overcast
11:53 AM 79.0 °F - 69.1 °F 72% 30.04 in 10.0 mi East 9.2 mph - N/A   Mostly Cloudy
12:53 PM 82.0 °F 85.5 °F 69.1 °F 65% 30.02 in 10.0 mi Calm Calm - N/A   Mostly Cloudy
1:53 PM 80.1 °F 82.9 °F 69.1 °F 69% 30.00 in 10.0 mi West 6.9 mph - N/A   Overcast
2:53 PM 82.0 °F 85.5 °F 69.1 °F 65% 29.98 in 10.0 mi WNW 10.4 mph - N/A   Clear
3:53 PM 82.0 °F 85.5 °F 69.1 °F 65% 29.95 in 10.0 mi WNW 10.4 mph - N/A   Partly Cloudy
4:53 PM 82.0 °F 83.4 °F 64.0 °F 54% 29.94 in 10.0 mi NW 10.4 mph 17.3 mph N/A   Clear
5:53 PM 81.0 °F 84.1 °F 69.1 °F 67% 29.95 in 10.0 mi WNW 10.4 mph - N/A   Partly Cloudy
6:53 PM 80.1 °F 82.9 °F 69.1 °F 69% 29.96 in 10.0 mi NW 6.9 mph - N/A   Partly Cloudy
7:53 PM 73.9 °F - 71.1 °F 91% 29.99 in 7.0 mi ESE 8.1 mph - 0.09 in Rain Light Rain
8:53 PM 73.9 °F - 71.1 °F 91% 30.01 in 9.0 mi East 6.9 mph - 0.00 in Rain Light Rain
9:53 PM 73.0 °F - 70.0 °F 90% 30.02 in 10.0 mi East 6.9 mph - 0.00 in   Mostly Cloudy
10:53 PM 71.1 °F - 69.1 °F 93% 30.04 in 10.0 mi ENE 8.1 mph - N/A   Scattered Clouds
11:53 PM 71.1 °F - 66.9 °F 87% 30.02 in 10.0 mi East 6.9 mph - N/A   Clear